TimeEST,TemperatureF,Dew PointF,Humidity,Sea Level PressureIn,VisibilityMPH,Wind Direction,Wind SpeedMPH,Gust SpeedMPH,PrecipitationIn,Events,Conditions,WindDirDegrees,DateUTC
12:35 AM,30.2,21.2,69,30.26,10.0,NE,4.6,-,N/A,,Overcast,40,2013-01-16 05:35:00
1:15 AM,30.2,19.4,64,30.26,10.0,ENE,5.8,-,N/A,,Overcast,60,2013-01-16 06:15:00
1:35 AM,30.2,19.4,64,30.27,10.0,NE,5.8,-,N/A,,Overcast,40,2013-01-16 06:35:00
1:55 AM,30.2,19.4,64,30.26,10.0,NE,6.9,-,N/A,,Mostly Cloudy,50,2013-01-16 06:55:00
2:15 AM,30.2,19.4,64,30.25,10.0,NE,6.9,-,N/A,,Overcast,50,2013-01-16 07:15:00
2:35 AM,30.2,19.4,64,30.24,10.0,ENE,5.8,-,N/A,,Mostly Cloudy,60,2013-01-16 07:35:00
3:15 AM,30.2,17.6,60,30.24,10.0,East,6.9,-,N/A,,Overcast,80,2013-01-16 08:15:00
3:35 AM,32.0,17.6,55,30.23,10.0,East,8.1,-,N/A,,Overcast,90,2013-01-16 08:35:00
3:55 AM,32.0,17.6,55,30.21,10.0,East,8.1,-,N/A,,Overcast,90,2013-01-16 08:55:00
4:15 AM,32.0,17.6,55,30.20,10.0,East,5.8,-,N/A,,Overcast,90,2013-01-16 09:15:00
4:35 AM,32.0,17.6,55,30.20,10.0,East,6.9,-,N/A,,Overcast,90,2013-01-16 09:35:00
4:55 AM,33.8,15.8,48,30.19,10.0,East,8.1,-,N/A,,Overcast,90,2013-01-16 09:55:00
5:15 AM,33.8,17.6,52,30.18,10.0,East,8.1,-,N/A,,Overcast,100,2013-01-16 10:15:00
5:35 AM,33.8,15.8,48,30.18,10.0,ENE,6.9,-,N/A,,Overcast,70,2013-01-16 10:35:00
5:55 AM,33.8,19.4,56,30.17,10.0,East,8.1,-,N/A,,Overcast,80,2013-01-16 10:55:00
6:15 AM,33.8,17.6,52,30.17,10.0,East,8.1,-,N/A,,Overcast,80,2013-01-16 11:15:00
6:35 AM,33.8,19.4,56,30.16,10.0,East,9.2,-,N/A,,Overcast,90,2013-01-16 11:35:00
6:55 AM,33.8,19.4,56,30.16,10.0,ENE,9.2,-,N/A,,Overcast,70,2013-01-16 11:55:00
7:35 AM,32.0,26.6,80,30.15,2.5,East,10.4,-,N/A,,Scattered Clouds,90,2013-01-16 12:35:00
7:55 AM,30.2,28.4,93,30.15,1.0,East,8.1,-,N/A,,Overcast,80,2013-01-16 12:55:00
8:15 AM,30.2,28.4,93,30.14,1.0,ENE,9.2,-,N/A,,Overcast,60,2013-01-16 13:15:00
8:35 AM,30.2,28.4,93,30.15,1.0,NE,8.1,-,N/A,,Overcast,50,2013-01-16 13:35:00
8:55 AM,30.2,28.4,93,30.14,1.5,NE,8.1,-,N/A,,Overcast,50,2013-01-16 13:55:00
9:15 AM,30.2,28.4,93,30.12,1.8,NE,10.4,-,N/A,,Overcast,50,2013-01-16 14:15:00
9:35 AM,30.2,30.2,100,30.12,1.5,NE,9.2,-,N/A,,Overcast,50,2013-01-16 14:35:00
9:55 AM,30.2,30.2,100,30.09,1.2,NE,9.2,-,N/A,,Overcast,50,2013-01-16 14:55:00
10:15 AM,30.2,30.2,100,30.08,1.5,NE,11.5,-,N/A,,Overcast,50,2013-01-16 15:15:00
10:35 AM,30.2,30.2,100,30.05,2.0,NE,11.5,17.3,N/A,,Overcast,40,2013-01-16 15:35:00
10:55 AM,32.0,30.2,93,30.04,0.8,NE,12.7,-,N/A,,Overcast,40,2013-01-16 15:55:00
11:15 AM,32.0,30.2,93,30.02,0.8,NE,13.8,-,N/A,,Overcast,50,2013-01-16 16:15:00
11:35 AM,32.0,30.2,93,30.01,0.8,NE,11.5,-,N/A,,Overcast,40,2013-01-16 16:35:00
11:55 AM,32.0,32.0,100,29.98,0.8,NE,8.1,-,N/A,,Overcast,40,2013-01-16 16:55:00
12:15 PM,32.0,32.0,100,29.96,1.2,NE,12.7,-,N/A,,Overcast,40,2013-01-16 17:15:00
12:35 PM,33.8,32.0,93,29.95,1.2,NE,8.1,-,N/A,,Overcast,40,2013-01-16 17:35:00
12:55 PM,33.8,32.0,93,29.95,1.2,NNE,8.1,-,N/A,,Overcast,30,2013-01-16 17:55:00
1:15 PM,33.8,32.0,93,29.94,1.5,North,8.1,-,N/A,,Overcast,10,2013-01-16 18:15:00
1:35 PM,33.8,32.0,93,29.93,1.2,NNE,9.2,-,N/A,,Overcast,30,2013-01-16 18:35:00
1:55 PM,33.8,32.0,93,29.92,0.8,NNE,5.8,-,N/A,,Overcast,30,2013-01-16 18:55:00
2:15 PM,33.8,32.0,93,29.91,3.0,NNE,4.6,-,N/A,,Overcast,20,2013-01-16 19:15:00
2:35 PM,33.8,32.0,93,29.88,4.0,North,5.8,-,N/A,,Overcast,10,2013-01-16 19:35:00
3:15 PM,33.8,33.8,100,29.87,10.0,North,5.8,-,N/A,,Overcast,360,2013-01-16 20:15:00
3:35 PM,33.8,33.8,100,29.85,7.0,NNE,6.9,-,N/A,,Overcast,20,2013-01-16 20:35:00
3:55 PM,33.8,33.8,100,29.86,3.0,North,4.6,-,N/A,,Overcast,10,2013-01-16 20:55:00
4:15 PM,33.8,33.8,100,29.84,7.0,ENE,3.5,-,N/A,,Overcast,60,2013-01-16 21:15:00
4:35 PM,33.8,33.8,100,29.84,5.0,Calm,Calm,-,0.01,,Overcast,0,2013-01-16 21:35:00
4:55 PM,35.6,33.8,93,29.85,7.0,NE,3.5,-,0.01,,Overcast,50,2013-01-16 21:55:00
5:15 PM,35.6,33.8,93,29.85,6.0,Calm,Calm,-,0.02,,Overcast,0,2013-01-16 22:15:00
5:35 PM,37.4,35.6,93,29.84,10.0,SE,10.4,-,0.05,,Overcast,130,2013-01-16 22:35:00
5:55 PM,37.4,35.6,93,29.84,10.0,ESE,10.4,-,0.09,,Overcast,120,2013-01-16 22:55:00
6:15 PM,37.4,35.6,93,29.82,10.0,SE,10.4,-,0.05,,Overcast,130,2013-01-16 23:15:00
6:55 PM,37.4,35.6,93,29.83,10.0,ESE,10.4,-,0.12,,Overcast,120,2013-01-16 23:55:00
7:15 PM,37.4,33.8,87,29.80,10.0,SE,11.5,-,0.03,,Overcast,130,2013-01-17 00:15:00
7:35 PM,37.4,35.6,93,29.80,10.0,SE,12.7,-,0.06,,Overcast,130,2013-01-17 00:35:00
7:55 PM,37.4,35.6,93,29.79,10.0,ESE,13.8,-,0.09,,Overcast,120,2013-01-17 00:55:00
8:15 PM,37.4,35.6,93,29.79,10.0,SE,13.8,-,0.03,,Overcast,130,2013-01-17 01:15:00
8:35 PM,37.4,35.6,93,29.79,10.0,SE,10.4,-,0.05,,Overcast,130,2013-01-17 01:35:00
8:55 PM,37.4,35.6,93,29.78,10.0,SE,11.5,16.1,0.07,,Overcast,130,2013-01-17 01:55:00
9:15 PM,37.4,35.6,93,29.77,10.0,ESE,9.2,-,0.02,,Overcast,120,2013-01-17 02:15:00
9:35 PM,37.4,35.6,93,29.77,10.0,SE,10.4,17.3,0.03,,Overcast,130,2013-01-17 02:35:00
9:55 PM,37.4,37.4,100,29.76,8.0,SE,11.5,-,0.04,,Overcast,130,2013-01-17 02:55:00
10:15 PM,37.4,37.4,100,29.76,5.0,SSE,9.2,-,0.02,,Overcast,150,2013-01-17 03:15:00
10:35 PM,37.4,35.6,93,29.76,5.0,SSE,6.9,-,0.04,,Overcast,160,2013-01-17 03:35:00
10:55 PM,39.2,37.4,93,29.75,5.0,SSE,5.8,-,0.06,,Overcast,150,2013-01-17 03:55:00
11:15 PM,39.2,37.4,93,29.74,5.0,SSE,5.8,-,0.03,,Overcast,160,2013-01-17 04:15:00
11:35 PM,39.2,39.2,100,29.74,9.0,SSW,6.9,-,0.04,,Overcast,210,2013-01-17 04:35:00
11:55 PM,37.4,37.4,100,29.74,8.0,West,10.4,-,0.04,,Overcast,260,2013-01-17 04:55:00